Location: Bullenkuhlen
(53.7689°N, 9.7495°E)
Time: 12:50:35
(UTC+00:00)

STARLINK-29 - Visible Passes

Search period start: 06 August 2020 00:00
Search period end: 16 August 2020 00:00
Orbit: 304 x 305 km, 53.0° (Epoch: 06 August)

Date Brightness Start Highest point End Pass type
(mag) Time Alt. Az. Time Alt. Az. Time Alt. Az.
06 Aug 3.3 21:12:46 10° SW 21:14:39 32° SSW 21:14:39 32° SSW visible
07 Aug 4.0 19:51:26 10° SSW 19:53:19 18° SSE 19:55:12 10° ESE visible
07 Aug 2.5 21:24:42 10° WSW 21:27:06 55° S 21:27:06 55° S visible
08 Aug 3.3 20:04:31 10° SW 20:06:53 30° SSE 20:09:16 10° E visible
08 Aug 2.6 21:38:30 10° W 21:40:44 56° WSW 21:40:44 56° WSW visible
09 Aug 2.6 20:19:43 10° WSW 20:22:18 48° SSE 20:24:47 10° E visible
09 Aug 3.7 21:54:07 10° W 21:55:47 34° W 21:55:47 34° W visible
10 Aug 2.3 20:36:54 10° WSW 20:39:32 69° S 20:41:19 18° E visible
10 Aug 4.7 22:11:31 10° W 22:12:24 18° W 22:12:24 18° W visible
11 Aug 2.3 20:55:57 10° W 20:58:35 77° S 20:59:28 37° E visible
12 Aug 2.4 19:41:58 10° WSW 19:44:36 65° S 19:47:14 10° E visible
12 Aug 2.4 21:16:47 10° W 21:19:17 64° SSW 21:19:17 64° SSW visible
13 Aug 2.3 20:04:27 10° W 20:07:07 77° S 20:09:25 13° E visible
13 Aug 4.2 21:39:27 10° W 21:40:48 24° WSW 21:40:48 24° WSW visible
14 Aug 2.4 20:28:46 10° W 20:31:24 66° S 20:32:33 29° ESE visible
15 Aug 3.0 20:54:55 10° W 20:57:25 41° SSW 20:57:25 41° SSW visible
